map of JED home
Great Circle Mapper logo
JED - Airport
Location
City:  Jeddah, Saudi Arabia
Name:King Abdulaziz Airport
ICAO / IATA:OEJN / JED

Details
Type:Airport (Aerodrome, Airfield)
Use:Public/Civil, Military, International (customs port of entry)
Latitude:2140'46"N (21.679564)
Longitude:3909'24"E (39.156536)
Datum:WGS 1984
Elevation:48 ft (15 m)
Runways:3
Longest:12467 × 197 ft (3800 × 60 m), paved

Time
Time Zone:UTC+3
Local Time:

Weather
METAR:OEJN 232000Z 32012KT 9999 SCT040 30/23 Q1005 NOSIG

Related Locations
Nearby:
Farthest:NTTX: 12323 mi / 19832 km
Mururoa Atoll, PF

Find:

   beyond  
but within

Other Information
Maps:
NOTAMs:
Links:
Sources:

  
flag of Saudi Arabia   

Sectional Chart

Flight Planning
at skyvector.com

Satellite Image

Google Maps Satellite View

 

Copyright © 2004-2014 Karl L. Swartz. All rights reserved.
The Great Circle Mapper name and logo are trademarks of the Great Circle Mapper.
All other trademarks mentioned herein belong to their respective owners.
Please see credits for attibutions and further copyright information.

  Follow gcmap on Facebook Follow gcmap on Twitter

hCard Microformat

Geo Microformat